#timestamp,LO_Frequency,Hit 
1505422815.9,286047013.4,N
1505422835.7,286047011.4,N
1505422855.6,286047011.8,N
1505422875.4,286047012.9,N
1505422895.2,286047008.1,N
1505422915.0,286047007.0,N
1505422915.9,286047007.0,N
1505422935.8,286047004.6,N
1505422955.6,286047013.5,N
1505422975.4,286047011.1,N
1505422995.3,286047008.8,N
1505423015.1,286047008.7,N
1505423035.8,286047010.2,N
1505423055.7,286047014.0,N
1505423075.5,286047008.3,N
1505423095.3,286046999.9,N
1505423115.2,286047001.8,N
1505423135.9,286047006.4,N
1505423155.7,286047002.6,N
1505423175.6,286047002.7,N
1505423195.4,286047000.7,N
1505423215.2,286046997.0,N
1505423235.0,286046993.5,N
1505423236.0,286046993.5,N
1505423255.8,286046995.1,N
1505423275.6,286046992.9,N
1505423295.4,286046997.8,N
1505423315.3,286047001.5,N
1505423335.1,286047001.9,N
1505423355.8,286047003.1,N
1505423375.7,286046996.7,N
1505423395.5,286046992.3,N
1505423415.3,286046998.4,N
1505423435.2,286047003.3,N
1505423455.9,286047010.4,N
1505423475.7,286047009.8,N
1505423495.6,286047015.6,N
1505423515.4,286047014.4,N
1505423535.2,286047016.8,N
1505423555.1,286047009.9,N
1505423556.0,286047009.9,N
1505423575.8,286047001.3,N
1505423595.6,286047000.4,N
1505423615.4,286047001.1,N
1505423635.3,286047006.3,N
1505423655.1,286047022.4,P
1505423675.9,286047030.8,P
1505423695.7,286047028.0,N
1505423715.5,286047023.6,N
1505423735.3,286047020.0,N
1505423755.2,286047012.9,N
1505423775.0,286047016.8,N
1505423775.9,286047016.8,N
1505423795.7,286047017.3,N
1505423815.6,286047017.4,N
1505423835.4,286047020.6,N
1505423855.3,286047023.0,P
1505423875.1,286047002.4,N
1505423876.0,286047002.4,N
1505423895.8,286047002.2,N
1505423915.7,286046995.1,N
1505423935.5,286046992.5,N
1505423955.3,286046987.2,N
1505423975.2,286046984.5,N
1505423995.9,286046983.4,N
1505424015.7,286046981.5,N
1505424035.5,286046981.7,N
1505424055.4,286046977.4,N
1505424075.2,286046983.5,N
1505424095.0,286046989.6,N
1505424095.9,286046989.6,N
1505424115.8,286046996.1,N
1505424135.6,286046993.9,N
1505424155.4,286046990.8,N
1505424175.3,286046991.7,N
1505424195.1,286046999.4,N
1505424215.8,286047003.1,N
1505424235.7,286047007.2,N
1505424255.5,286047007.6,N
1505424275.3,286047005.7,N
1505424295.2,286046998.2,N
1505424315.9,286047002.7,N
1505424335.7,286047004.9,N
1505424355.5,286047003.8,N
1505424375.4,286047000.4,N
1505424395.2,286047003.1,N
1505424415.0,286047002.3,N
1505424415.9,286047002.3,N
1505424435.8,286046998.2,N
1505424455.6,286046993.9,N
1505424475.4,286046992.3,N
1505424495.3,286046997.1,N
1505424515.1,286047000.2,N
1505424516.0,286047000.2,N
1505424535.8,286047008.1,N
1505424555.7,286047013.0,N
1505424575.5,286047014.6,N
1505424595.3,286047016.8,N
1505424615.2,286047013.5,N
1505424635.9,286047013.3,N
1505424655.7,286047017.6,N
1505424675.6,286047017.2,N
1505424695.4,286047014.6,N
1505424715.2,286047009.8,N
1505424735.0,286047012.1,N
1505424736.0,286047012.1,N
1505424755.8,286047012.2,N
1505424775.6,286047014.9,N
1505424795.4,286047014.1,N
1505424815.3,286047007.7,N
1505424835.1,286047010.8,N
1505424855.8,286047004.9,N
1505424875.7,286047003.9,N
1505424895.5,286046998.2,N
1505424915.3,286046998.0,N
1505424935.2,286046995.8,N
1505424955.9,286046995.8,N
1505424975.7,286047000.9,N
1505424995.6,286046999.6,N
1505425015.4,286046994.2,N
1505425035.2,286046995.7,N
1505425055.1,286047001.8,N
1505425056.0,286047001.8,N
1505425075.8,286047004.5,N
1505425095.6,286047001.5,N
1505425115.5,286047001.0,N
1505425135.3,286047000.0,N
1505425155.1,286046998.7,N
1505425175.8,286047001.1,N
1505425195.7,286047004.7,N
1505425215.5,286047005.3,N
1505425235.3,286047004.5,N
1505425255.2,286047004.6,N
1505425275.9,286047010.5,N
1505425295.7,286047010.3,N
1505425315.6,286047009.6,N
1505425335.4,286047014.4,N
1505425355.2,286047019.0,P
1505425375.1,286047013.7,N
1505425376.0,286047013.7,N
1505425395.8,286047010.8,N
1505425415.6,286047001.6,N
1505425435.5,286047002.3,N
1505425455.3,286047006.8,N
1505425475.1,286047011.8,N
1505425495.9,286047007.9,N
1505425515.7,286047003.0,N
1505425535.5,286047006.6,N
1505425555.4,286047007.4,N
1505425575.2,286047005.1,N
1505425595.0,286047001.9,N
1505425595.9,286047001.9,N
1505425615.8,286046996.7,N
1505425635.6,286046995.3,N
1505425655.4,286046999.0,N
1505425675.2,286047000.4,N
1505425695.1,286046996.6,N
1505425696.0,286046996.6,N
1505425715.8,286047001.6,N
1505425735.6,286046999.9,N
1505425755.5,286046995.8,N
1505425775.3,286046996.0,N
1505425795.1,286046995.9,N
1505425815.9,286046999.5,N
1505425835.7,286046997.6,N
1505425855.5,286046995.7,N
1505425875.4,286047002.2,N
1505425895.2,286047000.0,N
1505425915.0,286046999.5,N
1505425915.9,286046999.5,N
1505425935.8,286047000.4,N
1505425955.6,286047001.9,N
1505425975.4,286047007.2,N
1505425995.3,286047013.4,P
1505426015.1,286047016.0,N
1505426016.0,286047016.0,N
1505426035.8,286047010.9,N
1505426055.7,286047003.2,N
1505426075.5,286046999.2,N
1505426095.3,286046993.4,N
1505426115.1,286046994.0,N
1505426135.9,286046988.9,N
1505426155.7,286046991.2,N
1505426175.5,286046997.5,N
1505426195.4,286047004.7,N
1505426215.2,286047006.5,N
1505426235.0,286047009.6,N
1505426235.9,286047009.6,N
1505426255.8,286047006.7,N
1505426275.6,286047005.8,N
1505426295.4,286047007.9,N
1505426315.3,286047003.5,N
1505426335.1,286047003.9,N
1505426336.0,286047003.9,N
1505426355.8,286046997.5,N
1505426375.7,286046993.6,N
1505426395.5,286046990.6,N
